Location: La Savane
(18.0962°N, 63.0646°W)
Time: 14:37:37
(UTC+00:00)

Daily predictions for brighter satellites

Satellite Brightness Start Highest point End
(mag) Time Altitude Azimuth Time Altitude Azimuth Time Altitude Azimuth
SL-16 R/B 2.2 21:48:35 10° SSW 21:54:14 77° ESE 21:59:53 10° NNE
COSMO-SKYMED 1 2.7 21:51:01 10° NNE 21:55:17 58° E 21:59:32 10° S
TELKOM 3 2.6 21:54:14 10° NW 21:56:20 66° NE 21:58:43 10° SE
Cosmos 2034 Rocket 4.1 21:51:49 10° N 21:58:06 61° E 22:04:21 10° SSE
Cosmos 2056 Rocket 4.3 21:54:22 10° NNE 21:58:49 28° ENE 22:03:19 10° SE
H-2A R/B 2.7 21:55:04 10° SSE 21:58:54 76° ENE 22:02:42 10° N
Cosmos 2322 Rocket 2.2 21:53:35 10° S 21:59:09 71° ESE 22:04:44 10° NNE
Cosmos 1862 3.6 21:57:16 10° N 22:01:15 73° W 22:05:15 10° S
YAOGAN 1 4.3 22:00:48 10° E 22:02:44 13° ENE 22:04:39 10° NE
CZ-3C R/B 2.8 21:57:32 10° W 22:03:43 39° SSW 22:07:52 10° SE
Envisat 3.4 21:59:49 10° SE 22:04:30 39° ENE 22:09:12 10° N
CZ-3 Stage 3 1.0 22:03:26 10° WNW 22:09:03 59° NNE 22:11:12 10° ESE
Cosmos 1782 3.7 22:05:37 10° SSE 22:09:06 29° E 22:12:37 10° NNE
GPS 2-15 Rocket1 4.0 22:06:37 10° W 22:11:12 50° SSW 22:15:53 10° ESE
Tsikada Rocket 4.5 22:07:17 10° SSW 22:13:34 68° W 22:19:56 10° N
Cosmos 2297 Rocket 4.5 22:08:52 10° NW 22:13:40 29° WSW 22:18:26 10° SSW
Cosmos 2227 Rocket 4.3 22:10:00 10° NW 22:14:54 31° WSW 22:19:47 10° SSW
Aurora 2 Rocket 3.2 22:12:25 10° WNW 22:15:18 29° N 22:18:03 14° NE
Cosmos 1470 Rocket 3.5 22:15:46 10° N 22:20:13 79° E 22:24:38 10° S
Hubble Space Telescope 2.6 22:19:22 10° NW 22:22:22 19° N 22:24:46 13° NE
Cosmos 1400 Rocket 2.9 22:19:39 10° S 22:23:44 83° W 22:27:52 10° N
Cosmos 724 4.2 22:18:43 10° NNW 22:24:28 71° ENE 22:30:12 10° SSE
Cosmos 2263 Rocket 3.3 22:21:10 10° NNE 22:25:16 21° ENE 22:29:20 10° ESE
NOSS 2-2 (C) 4.1 22:22:15 10° SW 22:26:03 47° WNW 22:29:32 10° NNE
Delta 7925 Rocket 3.7 22:22:01 10° WNW 22:27:10 67° NNE 22:32:33 15° E
Palapa 6 Rocket 2.8 22:25:21 10° W 22:29:02 58° N 22:31:11 23° ENE
Atlas Centaur 2 3.2 22:20:58 10° SW 22:29:25 63° SSE 22:35:17 19° ENE
Cosmos 2219 Rocket 3.8 22:29:58 10° SE 22:32:46 15° ESE 22:32:46 15° ESE
Cosmos 2322 4.3 22:31:11 10° SSE 22:36:19 35° ESE 22:39:20 21° NE
Cosmos 1869 Rocket 4.4 22:41:45 27° E 22:41:45 27° E 22:45:12 10° SE
ATLAS 2AS CENTAUR R/B 3.0 22:34:24 10° SSW 22:41:58 81° ESE 22:49:57 10° NNE
Cosmos 1932 4.5 22:36:32 10° NNW 22:43:05 82° ENE 22:49:33 10° SSE
Cosmos 2333 Rocket 3.3 22:44:20 10° SSE 22:48:38 24° ESE 22:48:38 24° ESE
FengYun 1-2 T 4.3 22:50:01 10° S 22:55:32 81° WSW 23:01:02 10° NNW
ASTRO E2 4.4 22:55:27 10° WNW 22:58:37 22° NNW 22:59:24 21° N
ATLAS 5 CENTAUR R/B 4.1 22:57:36 10° SW 23:02:40 22° WNW 23:05:10 10° NNW
CSL-04 Debris 4.1 22:58:39 10° SSE 23:04:08 79° ENE 23:09:37 10° N
H-II Stage 2 4.3 21:48:40 10° WSW 23:05:32 55° NNW 23:09:34 30° NE
Meteor 1-14 Rocket 4.2 23:00:34 10° N 23:06:28 64° E 23:12:14 10° SSE
NOAA 11 4.1 23:02:26 10° SSE 23:07:42 56° ENE 23:13:00 10° N
SeaSat 1 2.9 23:09:51 41° NNE 23:09:51 41° NNE 23:13:27 10° N
Meteor 1-27 Rocket 4.3 23:05:39 10° SSE 23:09:43 37° ESE 23:09:43 37° ESE
NATO 3D Rocket 3.9 23:06:06 10° W 23:11:11 68° SSW 23:13:54 35° ESE
CSL-04 Rocket 3.6 23:06:39 10° SSE 23:12:02 86° WSW 23:17:21 10° NNW
OAO 1 Rocket 4.3 23:06:51 10° WSW 23:12:09 90° NNW 23:13:09 60° ENE
Cosmos 1707 Rocket 4.1 23:11:06 10° SSW 23:15:23 56° W 23:18:09 21° NNW
CZ-4 R/B 2.9 23:15:16 10° SSW 23:19:07 37° W 23:22:55 10° NNW
Meteor 2-6 Rocket 4.5 23:15:45 10° SSW 23:21:19 66° W 23:25:35 17° N
GOES 2 Rocket 3.5 23:16:41 10° WSW 23:22:36 61° NNW 23:22:59 59° N
Exosat Rocket 4.2 23:18:44 10° S 23:27:13 77° ESE 23:28:54 53° NNE
Cosmos 2360 Rocket 3.8 23:23:54 10° SW 23:28:51 32° WNW 23:33:39 11° N
Ariane H10 4.0 23:33:15 10° SW 23:35:28 19° SSW 23:35:28 19° SSW
YAOGAN 1 4.4 23:34:42 10° SSW 23:38:29 30° W 23:42:16 10° NW
COSMOS 2428 3.0 23:34:48 10° SSW 23:39:16 57° S 23:39:16 57° S
CCE 1 Rocket 4.4 23:41:07 10° WNW 23:45:42 76° SW 23:45:42 76° SW
ADEOS Rocket 3.0 23:49:23 65° WSW 23:49:23 65° WSW 23:54:12 10° SSW
